DW8626 Madrid ES current weather conditions

sailwx.info

Wind from 250 at 2 knots gusting 9

Air temperature 4.4° C
Dewpoint -1.8° C

Last reported at 2015-Feb-01 23:45 UTC.
Time now 2015-Feb-02 00:18 UTC

Location: N 40°29' W 003°43'.
View on Google Maps.

See reports from other nearby stations

  
Tides and Currents Weather Stations Pressure Air Temp Water Temp Dewpoint Dewpoint Depression Visibility Wind Speed Wind Dir Waves Ship Positions
date/time (UTC)wind fromknots sea level pressurealtimeterstation pressurevisibilityair tempwater tempwave heightnotes
2015-Feb-01 23:45 250 2 gusting 9 4.4
2015-Feb-01 23:30 215 4 gusting 9 4.4
2015-Feb-01 23:15 283 4 gusting 9 4.4
2015-Feb-01 23:00 288 4 gusting 9 4.4
2015-Feb-01 22:45 159 5 gusting 8 4.4
2015-Feb-01 22:31 260 6 gusting 6 4.4
2015-Feb-01 22:17 252 10 gusting 11 4.4
2015-Feb-01 22:00 283 5 gusting 9 4.4
2015-Feb-01 21:45 273 4 gusting 8 4.4
2015-Feb-01 21:30 274 6 gusting 8 4.4
2015-Feb-01 21:15 297 1 gusting 9 4.4
2015-Feb-01 21:00 277 5 gusting 9 4.4
2015-Feb-01 20:45 290 5.0
2015-Feb-01 20:30 212 2 gusting 7 5.0
2015-Feb-01 20:15 307 5 gusting 12 5.0
2015-Feb-01 20:02 277 5 gusting 14 5.0
2015-Feb-01 19:30 204 2 gusting 15 5.6
2015-Feb-01 19:15 243 4 gusting 13 5.6
2015-Feb-01 19:00 260 4 gusting 13 5.6
2015-Feb-01 18:45 294 6 gusting 13 5.6
2015-Feb-01 18:30 277 2 gusting 10 5.6
2015-Feb-01 18:15 291 4 gusting 12 5.6
2015-Feb-01 18:00 263 1 gusting 12 6.1
2015-Feb-01 17:46 285 1 gusting 13 6.1
2015-Feb-01 17:32 297 3 gusting 14 6.1
2015-Feb-01 17:16 321 6 gusting 18 6.7
2015-Feb-01 17:01 287 10 gusting 16 6.7
2015-Feb-01 16:46 285 6 gusting 12 6.7
2015-Feb-01 16:32 278 12 gusting 20 6.7
2015-Feb-01 16:15 277 6 gusting 16 6.7
2015-Feb-01 16:00 243 9 gusting 16 6.7
2015-Feb-01 15:45 263 6 gusting 15 6.7
2015-Feb-01 15:30 360 5 gusting 15 6.7
2015-Feb-01 15:15 279 9 gusting 13 6.7
2015-Feb-01 14:31 284 8 gusting 17 6.1
2015-Feb-01 14:15 284 11 gusting 23 6.7
2015-Feb-01 14:00 263 12 gusting 20 6.7
2015-Feb-01 13:46 263 7 gusting 24 6.1
2015-Feb-01 13:30 281 17 gusting 23 6.1
2015-Feb-01 13:15 228 6 gusting 26 6.1
2015-Feb-01 13:01 271 11 gusting 26 6.1
2015-Feb-01 12:45 290 8 gusting 20 5.6
2015-Feb-01 12:00 280 10 gusting 15 5.0
2015-Feb-01 11:45 233 7 gusting 18 5.0
2015-Feb-01 11:30 299 11 gusting 14 5.0
2015-Feb-01 11:15 293 8 gusting 15 5.0
2015-Feb-01 11:01 299 7 gusting 18 4.4
2015-Feb-01 10:46 299 8 gusting 14 4.4
2015-Feb-01 10:30 274 5 gusting 16 4.4
2015-Feb-01 10:15 292 5 gusting 15 4.4
2015-Feb-01 09:31 300 6 gusting 17 3.3
2015-Feb-01 09:16 323 2 gusting 15 3.3
2015-Feb-01 09:01 239 7 gusting 17 2.8
2015-Feb-01 08:45 286 5 gusting 15 2.8
2015-Feb-01 08:31 266 8 gusting 16 2.2
2015-Feb-01 08:01 315 0 gusting 11 1.7
2015-Feb-01 07:46 290 2 gusting 16 1.7
2015-Feb-01 07:00 306 3 gusting 15 1.7
2015-Feb-01 06:45 259 3 gusting 13 1.7
2015-Feb-01 06:30 307 4 gusting 14 1.7
2015-Feb-01 06:15 307 8 gusting 18 1.7
2015-Feb-01 06:00 333 7 gusting 13 1.7
2015-Feb-01 05:45 283 5 gusting 21 2.2
2015-Feb-01 05:30 316 9 gusting 17 2.2
2015-Feb-01 05:15 284 5 gusting 13 2.2
2015-Feb-01 05:02 348 3 gusting 9 2.2
2015-Feb-01 04:47 254 2.2
2015-Feb-01 04:30 269 3 gusting 13 2.2
2015-Feb-01 04:15 335 4 gusting 13 2.2
2015-Feb-01 04:00 297 8 gusting 13 2.2
2015-Feb-01 03:45 292 4 gusting 13 2.2
2015-Feb-01 03:30 260 2 gusting 6 2.2
2015-Feb-01 03:15 304 0 gusting 6 2.8
2015-Feb-01 03:00 262 0 gusting 11 2.8
2015-Feb-01 02:45 289 2.8
2015-Feb-01 02:32 287 6 gusting 16 2.8
2015-Feb-01 02:17 299 13 gusting 13 2.8
2015-Feb-01 02:00 284 6 gusting 18 2.8
2015-Feb-01 01:45 301 10 gusting 19 2.8
2015-Feb-01 01:30 310 7 gusting 16 2.8
2015-Feb-01 01:15 349 7 gusting 19 2.8
2015-Feb-01 01:00 290 6 gusting 16 2.8
2015-Feb-01 00:45 266 4 gusting 13 3.3
2015-Feb-01 00:30 281 5 gusting 13 2.8
2015-Feb-01 00:15 277 4 gusting 12 2.8
2015-Feb-01 00:01 274 4 gusting 17 3.3
2015-Jan-31 23:30 290 5 gusting 15 3.3
2015-Jan-31 23:15 281 6 gusting 19 3.3
2015-Jan-31 23:00 297 5 gusting 19 3.3
2015-Jan-31 22:45 264 9 gusting 24 3.3
2015-Jan-31 22:30 284 5 gusting 20 3.3
2015-Jan-31 22:15 308 8 gusting 15 3.3
2015-Jan-31 22:00 328 5 gusting 13 3.3
2015-Jan-31 21:45 300 5 gusting 14 3.9
2015-Jan-31 21:32 284 1 gusting 14 3.9
2015-Jan-31 21:17 294 0 gusting 16 4.4
2015-Jan-31 21:00 271 9 gusting 17 4.4
2015-Jan-31 20:45 284 6 gusting 12 4.4
2015-Jan-31 20:30 290 2 gusting 8 4.4
2015-Jan-31 20:15 312 3 gusting 13 4.4
2015-Jan-31 20:00 252 5 gusting 10 4.4
2015-Jan-31 19:45 255 3 gusting 7 4.4
2015-Jan-31 19:30 257 3 gusting 6 5.0
2015-Jan-31 19:15 240 4 gusting 11 5.6
2015-Jan-31 19:02 284 5 gusting 14 5.6
2015-Jan-31 18:47 069 4 gusting 11 5.6
2015-Jan-31 18:30 321 7 gusting 15 5.6
2015-Jan-31 18:15 304 5 gusting 12 5.0
2015-Jan-31 18:00 290 11 gusting 14 5.6
2015-Jan-31 17:32 250 2 gusting 10 5.6
2015-Jan-31 17:16 229 2 gusting 10 5.6
2015-Jan-31 17:02 260 2 gusting 8 5.6
2015-Jan-31 16:46 274 9 gusting 11 5.0
2015-Jan-31 15:46 211 2 gusting 9 5.6
2015-Jan-31 15:32 277 0 gusting 9 5.6
2015-Jan-31 15:15 240 6 gusting 13 5.0
2015-Jan-31 15:01 263 15 gusting 19 5.0
2015-Jan-31 14:16 342 10 gusting 26 7.2
2015-Jan-31 14:03 326 4 gusting 21 7.2
2015-Jan-31 13:49 291 23 gusting 23 7.8
2015-Jan-31 13:31 302 14 gusting 24 8.3
2015-Jan-31 13:16 008 16 gusting 23 7.8
2015-Jan-31 13:01 311 11 gusting 18 8.3
2015-Jan-31 12:46 311 6 gusting 13 7.8
2015-Jan-31 12:31 280 13 gusting 22 7.8
2015-Jan-31 12:16 293 5 gusting 21 7.8
2015-Jan-31 12:00 285 13 gusting 24 7.8
2015-Jan-31 11:46 311 13 gusting 23 7.8
2015-Jan-31 11:18 307 5 gusting 22 7.8
2015-Jan-31 11:00 335 8 gusting 18 7.2
2015-Jan-31 10:45 260 6 gusting 19 7.2
2015-Jan-31 10:30 278 10 gusting 17 6.7
2015-Jan-31 10:15 338 7 gusting 17 7.2
2015-Jan-31 10:01 257 7 gusting 22 6.7
2015-Jan-31 09:45 281 8 gusting 19 6.7
2015-Jan-31 09:30 311 7 gusting 17 6.7
2015-Jan-31 09:15 264 6 gusting 14 6.7
2015-Jan-31 08:30 311 14 gusting 19 6.1
2015-Jan-31 08:15 283 8 gusting 17 6.1
2015-Jan-31 08:00 018 2 gusting 18 5.6
2015-Jan-31 07:45 291 11 gusting 17 5.6
2015-Jan-31 07:30 297 2 gusting 10 5.0
2015-Jan-31 07:15 271 6 gusting 13 5.6
2015-Jan-31 07:00 274 13 gusting 24 5.6
2015-Jan-31 06:45 290 10 gusting 28 6.7
2015-Jan-31 06:32 282 23 gusting 25 7.8
2015-Jan-31 06:17 292 7 gusting 18 7.8
2015-Jan-31 06:00 297 16 gusting 23 8.3
2015-Jan-31 05:45 287 23 gusting 38 8.9
2015-Jan-31 05:30 302 12 gusting 29 8.9
2015-Jan-31 05:15 276 9 gusting 19 8.9
2015-Jan-31 05:00 284 9 gusting 26 8.9
2015-Jan-31 04:45 299 11 gusting 35 8.9
2015-Jan-31 04:30 273 15 gusting 31 8.9
2015-Jan-31 04:15 224 10 gusting 22 8.9
2015-Jan-31 04:02 285 14 gusting 19 8.9
2015-Jan-31 03:30 273 9 gusting 19 8.3
2015-Jan-31 03:15 264 19 gusting 31 7.8
2015-Jan-31 03:00 300 10 gusting 33 8.9
2015-Jan-31 02:45 286 5 gusting 17 10.6
2015-Jan-31 02:30 232 9 gusting 18 10.6
2015-Jan-31 02:15 263 6 gusting 13 10.6
2015-Jan-31 02:00 249 8 gusting 21 11.1
2015-Jan-31 01:45 243 15 gusting 25 11.1
2015-Jan-31 01:32 291 11 gusting 16 11.1
2015-Jan-31 01:17 263 6 gusting 13 10.6
2015-Jan-31 01:00 265 9 gusting 15 10.6
2015-Jan-31 00:45 274 7 gusting 22 10.6
2015-Jan-31 00:30 315 12 gusting 22 10.6
2015-Jan-31 00:15 269 9 gusting 18 11.1
2015-Jan-31 00:00 288 13 gusting 20 11.1